When you browse on this site, cookies collect data to enhance your experience and personalize the content and advertising you see.
Visit our Privacy Policy to learn more. By continuing to use the site, you agree to this use of cookies and data.
  • In Schweiz
  • Länderverzeichnis
  • Für 7 Tage
  • Wassertemperatur
  • Satellitenkarten
  • Wetterkarte
  • Widgets
  • user-avatar
    Anmelden

    Stündliche Wetter Biskira

    Heute, 23 März, Samstag

    Zeit Temperatur Niederschläge Wind Luftdruck Luftfeuchtigkeit
    00:00 +16°C° 0 mm 2 m/S 755 mmHg 46%
    01:00 +16°C° 0 mm 2 m/S 755 mmHg 49%
    02:00 +15°C° 0 mm 2 m/S 755 mmHg 52%
    03:00 +15°C° 0 mm 2 m/S 755 mmHg 55%
    04:00 +15°C° 0 mm 2 m/S 755 mmHg 57%
    05:00 +14°C° 0 mm 2 m/S 755 mmHg 59%
    06:00 +14°C° 0 mm 2 m/S 755 mmHg 60%
    07:00 +15°C° 0 mm 2 m/S 755 mmHg 57%
    08:00 +16°C° 0 mm 2 m/S 755 mmHg 54%
    09:00 +16°C° 0 mm 2 m/S 756 mmHg 50%
    10:00 +18°C° 0 mm 2 m/S 755 mmHg 47%
    11:00 +19°C° 0 mm 2 m/S 755 mmHg 43%
    12:00 +20°C° 0 mm 2 m/S 755 mmHg 40%
    13:00 +20°C° 0 mm 2 m/S 755 mmHg 39%
    14:00 +20°C° 0 mm 2 m/S 755 mmHg 38%
    15:00 +21°C° 0 mm 2 m/S 755 mmHg 36%
    16:00 +21°C° 0 mm 2 m/S 755 mmHg 37%
    17:00 +20°C° 0 mm 2 m/S 755 mmHg 37%
    18:00 +20°C° 0 mm 2 m/S 756 mmHg 37%
    19:00 +20°C° 0 mm 2 m/S 756 mmHg 37%
    20:00 +20°C° 0 mm 2 m/S 757 mmHg 38%
    21:00 +20°C° 0 mm 2 m/S 757 mmHg 39%
    22:00 +19°C° 0 mm 2 m/S 757 mmHg 41%
    23:00 +19°C° 0 mm 2 m/S 758 mmHg 43%

    Morgen, 24 März, Sonntag

    Zeit Temperatur Niederschläge Wind Luftdruck Luftfeuchtigkeit
    00:00 +19°C° 0 mm 2 m/S 758 mmHg 44%
    01:00 +18°C° 0 mm 2 m/S 758 mmHg 48%
    02:00 +17°C° 0 mm 2 m/S 758 mmHg 51%
    03:00 +16°C° 0 mm 3 m/S 758 mmHg 54%
    04:00 +16°C° 0 mm 2 m/S 758 mmHg 57%
    05:00 +15°C° 0 mm 2 m/S 758 mmHg 60%
    06:00 +15°C° 0 mm 1 m/S 758 mmHg 62%
    07:00 +16°C° 0 mm 2 m/S 758 mmHg 58%
    08:00 +17°C° 0 mm 2 m/S 758 mmHg 53%
    09:00 +18°C° 0 mm 2 m/S 759 mmHg 48%
    10:00 +19°C° 0 mm 3 m/S 758 mmHg 44%
    11:00 +20°C° 0 mm 3 m/S 758 mmHg 39%
    12:00 +20°C° 0 mm 3 m/S 758 mmHg 34%
    13:00 +21°C° 0 mm 3 m/S 758 mmHg 33%
    14:00 +21°C° 0 mm 3 m/S 757 mmHg 32%
    15:00 +21°C° 0 mm 3 m/S 756 mmHg 31%
    16:00 +21°C° 0 mm 3 m/S 756 mmHg 32%
    17:00 +21°C° 0 mm 3 m/S 756 mmHg 33%
    18:00 +20°C° 0 mm 2 m/S 756 mmHg 33%
    19:00 +20°C° 0 mm 2 m/S 757 mmHg 35%
    20:00 +20°C° 0 mm 1 m/S 757 mmHg 37%
    21:00 +20°C° 0 mm 1 m/S 758 mmHg 39%
    22:00 +19°C° 0 mm 1 m/S 758 mmHg 41%
    23:00 +19°C° 0 mm 1 m/S 758 mmHg 43%

    übermorgen, 25 März, Montag

    Zeit Temperatur Niederschläge Wind Luftdruck Luftfeuchtigkeit
    00:00 +18°C° 0 mm 1 m/S 758 mmHg 45%
    01:00 +18°C° 0 mm 1 m/S 757 mmHg 46%
    02:00 +16°C° 0 mm 1 m/S 757 mmHg 48%
    03:00 +16°C° 0 mm 1 m/S 757 mmHg 49%
    04:00 +16°C° 0 mm 1 m/S 756 mmHg 49%
    05:00 +15°C° 0 mm 1 m/S 756 mmHg 50%
    06:00 +15°C° 0 mm 1 m/S 756 mmHg 50%
    07:00 +16°C° 0 mm 0 m/S 756 mmHg 46%
    08:00 +17°C° 0 mm 0 m/S 757 mmHg 41%
    09:00 +18°C° 0 mm 0 m/S 757 mmHg 36%
    10:00 +21°C° 0 mm 1 m/S 756 mmHg 34%
    11:00 +21°C° 0 mm 2 m/S 756 mmHg 33%
    12:00 +22°C° 0 mm 3 m/S 756 mmHg 31%
    13:00 +23°C° 0 mm 2 m/S 755 mmHg 30%
    14:00 +23°C° 0 mm 2 m/S 754 mmHg 29%
    15:00 +24°C° 0 mm 2 m/S 753 mmHg 29%
    16:00 +24°C° 0 mm 1 m/S 753 mmHg 30%
    17:00 +23°C° 0 mm 1 m/S 753 mmHg 31%
    18:00 +23°C° 0 mm 1 m/S 753 mmHg 32%
    19:00 +23°C° 0 mm 1 m/S 754 mmHg 33%
    20:00 +22°C° 0 mm 1 m/S 754 mmHg 35%
    21:00 +22°C° 0 mm 1 m/S 754 mmHg 37%
    22:00 +21°C° 0 mm 1 m/S 754 mmHg 39%
    23:00 +20°C° 0 mm 1 m/S 754 mmHg 40%

    26 März, Dienstag

    Zeit Temperatur Niederschläge Wind Luftdruck Luftfeuchtigkeit
    00:00 +18°C° 0 mm 0 m/S 753 mmHg 42%
    01:00 +18°C° 0 mm 0 m/S 753 mmHg 43%
    02:00 +17°C° 0 mm 0 m/S 753 mmHg 44%
    03:00 +17°C° 0 mm 0 m/S 753 mmHg 44%
    04:00 +19°C° 0 mm 1 m/S 752 mmHg 44%
    05:00 +19°C° 0 mm 1 m/S 752 mmHg 44%
    06:00 +19°C° 0 mm 1 m/S 752 mmHg 44%
    07:00 +20°C° 0 mm 1 m/S 752 mmHg 41%
    08:00 +22°C° 0 mm 1 m/S 753 mmHg 37%
    09:00 +23°C° 0 mm 1 m/S 753 mmHg 33%
    10:00 +24°C° 0 mm 2 m/S 753 mmHg 32%
    11:00 +25°C° 0 mm 2 m/S 753 mmHg 31%
    12:00 +26°C° 0 mm 3 m/S 753 mmHg 30%
    13:00 +26°C° 0 mm 3 m/S 753 mmHg 29%
    14:00 +26°C° 0 mm 3 m/S 752 mmHg 27%
    15:00 +27°C° 0 mm 3 m/S 752 mmHg 26%
    16:00 +26°C° 0 mm 2 m/S 752 mmHg 28%
    17:00 +26°C° 0 mm 2 m/S 752 mmHg 30%
    18:00 +25°C° 0 mm 1 m/S 752 mmHg 31%
    19:00 +25°C° 0 mm 1 m/S 752 mmHg 33%
    20:00 +24°C° 0 mm 2 m/S 753 mmHg 35%
    21:00 +24°C° 0 mm 2 m/S 753 mmHg 37%
    22:00 +23°C° 0 mm 2 m/S 753 mmHg 39%
    23:00 +23°C° 0 mm 1 m/S 753 mmHg 42%

    27 März, Mittwoch

    Zeit Temperatur Niederschläge Wind Luftdruck Luftfeuchtigkeit
    00:00 +22°C° 0 mm 1 m/S 753 mmHg 45%
    01:00 +21°C° 0 mm 2 m/S 753 mmHg 46%
    02:00 +20°C° 0 mm 2 m/S 753 mmHg 47%
    03:00 +20°C° 0 mm 3 m/S 752 mmHg 49%
    04:00 +20°C° 0 mm 2 m/S 753 mmHg 50%
    05:00 +20°C° 0 mm 2 m/S 753 mmHg 51%
    06:00 +19°C° 0 mm 2 m/S 753 mmHg 51%
    07:00 +20°C° 0 mm 2 m/S 753 mmHg 49%
    08:00 +21°C° 0 mm 2 m/S 754 mmHg 46%
    09:00 +21°C° 0 mm 2 m/S 754 mmHg 43%
    10:00 +23°C° 0 mm 2 m/S 754 mmHg 42%
    11:00 +23°C° 0 mm 2 m/S 753 mmHg 42%
    12:00 +24°C° 0 mm 2 m/S 753 mmHg 42%
    13:00 +24°C° 0 mm 2 m/S 753 mmHg 41%
    14:00 +24°C° 0 mm 2 m/S 753 mmHg 41%
    15:00 +24°C° 0 mm 2 m/S 752 mmHg 40%
    16:00 +24°C° 0 mm 3 m/S 753 mmHg 41%
    17:00 +22°C° 0 mm 3 m/S 753 mmHg 41%
    18:00 +22°C° 0 mm 3 m/S 754 mmHg 41%
    19:00 +22°C° 0 mm 3 m/S 754 mmHg 41%
    20:00 +21°C° 0 mm 4 m/S 755 mmHg 41%
    21:00 +21°C° 0 mm 4 m/S 756 mmHg 40%
    22:00 +20°C° 0 mm 3 m/S 755 mmHg 43%
    23:00 +19°C° 0 mm 3 m/S 755 mmHg 45%

    28 März, Donnerstag

    Zeit Temperatur Niederschläge Wind Luftdruck Luftfeuchtigkeit
    00:00 +18°C° 0 mm 2 m/S 755 mmHg 47%
    01:00 +18°C° 0 mm 2 m/S 755 mmHg 48%
    02:00 +17°C° 0 mm 2 m/S 755 mmHg 50%
    03:00 +17°C° 0 mm 2 m/S 755 mmHg 51%
    04:00 +16°C° 0 mm 2 m/S 755 mmHg 51%
    05:00 +16°C° 0 mm 2 m/S 756 mmHg 52%
    06:00 +15°C° 0 mm 2 m/S 756 mmHg 53%
    07:00 +16°C° 0.1 mm 2 m/S 756 mmHg 53%
    08:00 +16°C° 0.1 mm 2 m/S 757 mmHg 53%
    09:00 +16°C° 0.1 mm 3 m/S 757 mmHg 53%
    10:00 +16°C° 0.4 mm 3 m/S 757 mmHg 57%
    11:00 +14°C° 0.4 mm 3 m/S 756 mmHg 62%
    12:00 +14°C° 0.4 mm 4 m/S 756 mmHg 66%
    13:00 +15°C° 0 mm 4 m/S 756 mmHg 60%
    14:00 +17°C° 0 mm 3 m/S 755 mmHg 55%
    15:00 +19°C° 0 mm 3 m/S 755 mmHg 49%
    16:00 +19°C° 0 mm 3 m/S 755 mmHg 49%
    17:00 +18°C° 0 mm 2 m/S 755 mmHg 50%
    18:00 +18°C° 0 mm 2 m/S 756 mmHg 50%
    19:00 +18°C° 0 mm 2 m/S 756 mmHg 52%
    20:00 +18°C° 0 mm 1 m/S 757 mmHg 55%
    21:00 +18°C° 0 mm 1 m/S 757 mmHg 57%
    22:00 +18°C° 0 mm 1 m/S 757 mmHg 58%
    23:00 +18°C° 0 mm 1 m/S 757 mmHg 58%
    Mehr zeigen